Simultaneous Nadir Overpasses (SNOs) Predictions

Prediction of SNOs between LANDSAT-8 and METOP-A Satellite Orbit:

Table of predicted SNOs for the next 14.0 days since TLE Epoch: 1/12/2018
Index Date (LANDSAT-8) Time (LANDSAT-8) Lat,Lon (LANDSAT-8) SZA (LANDSAT-8 ) Date (METOP-A) Time (METOP-A) Lat,Lon (METOP-A) SZA (METOP-A ) Distance(km) Time Diff (sec)
1 01/14/2018 21:13:20 81.28, -96.02 104.38 01/14/2018 21:12:54 81.28, -96.11 104.36 1.50 26
2 01/14/2018 22:02:46 -81.30, 71.90 75.59 01/14/2018 22:03:33 -81.30, 71.98 75.56 1.39 47
3 01/17/2018 16:47:34 81.28, -29.67 103.81 01/17/2018 16:47:13 81.28, -29.77 103.80 1.62 21
4 01/17/2018 17:37:00 -81.29, 138.27 76.16 01/17/2018 17:37:52 -81.30, 138.32 76.13 1.01 52
5 01/20/2018 12:21:46 81.29, 37.02 103.24 01/20/2018 12:21:30 81.29, 36.95 103.23 1.18 16
6 01/20/2018 13:11:12 -81.31,-155.01 76.73 01/20/2018 13:12:09 -81.31,-154.95 76.70 1.09 57
7 01/23/2018 07:56:00 81.28, 103.30 102.56 01/23/2018 07:55:49 81.29, 103.27 102.56 0.62 11
8 01/23/2018 08:45:26 -81.30, -88.71 77.40 01/23/2018 08:46:28 -81.30, -88.64 77.37 1.23 62
9 01/26/2018 03:30:13 81.29, 169.92 101.89 01/26/2018 03:30:07 81.29, 169.96 101.89 0.69 6




NCC Satellite Simultaneous Nadir Overpasses (SNOs) Prediction Service
